TimeCST,TemperatureF,Dew PointF,Humidity,Sea Level PressureIn,VisibilityMPH,Wind Direction,Wind SpeedMPH,Gust SpeedMPH,PrecipitationIn,Events,Conditions,WindDirDegrees,DateUTC
12:53 AM,21.0,12.9,71,30.13,10.0,WSW,4.6,-,N/A,,Clear,250,2014-01-19 06:53:00
1:53 AM,21.0,14.0,74,30.12,10.0,Calm,Calm,-,N/A,,Clear,0,2014-01-19 07:53:00
2:53 AM,19.9,15.1,81,30.11,10.0,SW,8.1,-,N/A,,Clear,220,2014-01-19 08:53:00
3:53 AM,19.9,15.1,81,30.08,10.0,SW,11.5,-,N/A,,Clear,230,2014-01-19 09:53:00
4:53 AM,21.0,15.1,78,30.06,10.0,SSW,5.8,-,N/A,,Clear,200,2014-01-19 10:53:00
5:53 AM,21.9,16.0,78,30.04,10.0,SSW,8.1,-,N/A,,Clear,210,2014-01-19 11:53:00
6:53 AM,21.9,16.0,78,30.06,10.0,SSW,9.2,-,N/A,,Clear,210,2014-01-19 12:53:00
7:53 AM,25.0,19.0,78,30.05,10.0,SSW,10.4,-,N/A,,Clear,210,2014-01-19 13:53:00
8:53 AM,30.0,21.9,72,30.03,10.0,SW,17.3,-,N/A,,Clear,220,2014-01-19 14:53:00
9:53 AM,37.9,24.1,57,30.01,10.0,SW,17.3,24.2,N/A,,Clear,220,2014-01-19 15:53:00
10:53 AM,46.0,23.0,40,29.98,10.0,SW,15.0,25.3,N/A,,Clear,230,2014-01-19 16:53:00
11:53 AM,52.0,21.9,31,29.91,10.0,SW,17.3,26.5,N/A,,Clear,220,2014-01-19 17:53:00
12:53 PM,54.0,21.9,29,29.89,10.0,SW,21.9,31.1,N/A,,Clear,230,2014-01-19 18:53:00
1:53 PM,57.9,21.9,25,29.84,10.0,WSW,19.6,-,N/A,,Clear,240,2014-01-19 19:53:00
2:53 PM,59.0,23.0,25,29.82,10.0,SW,20.7,28.8,N/A,,Clear,220,2014-01-19 20:53:00
3:53 PM,59.0,21.9,24,29.81,10.0,SW,18.4,25.3,N/A,,Clear,220,2014-01-19 21:53:00
4:53 PM,57.0,21.9,26,29.81,10.0,SW,13.8,-,N/A,,Clear,220,2014-01-19 22:53:00
5:53 PM,52.0,21.9,31,29.82,10.0,SSW,10.4,-,N/A,,Clear,210,2014-01-19 23:53:00
6:53 PM,53.1,21.9,30,29.83,10.0,SW,15.0,-,N/A,,Clear,230,2014-01-20 00:53:00
7:53 PM,51.1,23.0,33,29.84,10.0,SW,12.7,-,N/A,,Clear,230,2014-01-20 01:53:00
8:53 PM,50.0,23.0,35,29.85,10.0,SW,10.4,-,N/A,,Clear,230,2014-01-20 02:53:00
9:53 PM,48.9,23.0,36,29.84,10.0,SW,10.4,-,N/A,,Clear,230,2014-01-20 03:53:00
10:53 PM,48.0,21.9,36,29.86,10.0,West,9.2,-,N/A,,Clear,260,2014-01-20 04:53:00
11:53 PM,46.0,21.9,39,29.87,10.0,West,8.1,-,N/A,,Clear,260,2014-01-20 05:53:00